This is the latest recevied weather packets stored in our database for station/object W1SCW. If no packets are shown the sender has not sent any weather packets the latest 10 day(s).
| Time | Temp. | Humidity | Pressure | Rain* | Wind** | Luminosity | Snow |
|---|---|---|---|---|---|---|---|
| 1777768440 | 23.33° C | 48% | 1017.1 hPa | 0 mm | - | 26 W/m² | - |
| 1777768137 | 23.33° C | 48% | 1016.9 hPa | 0 mm | - | 31 W/m² | - |
| 1777767834 | 23.89° C | 47% | 1017 hPa | 0 mm | - | 36 W/m² | - |
| 1777767530 | 23.89° C | 47% | 1017.1 hPa | 0 mm | - | 41 W/m² | - |
| 1777767226 | 23.89° C | 46% | 1016.9 hPa | 0 mm | - | 48 W/m² | - |
| 1777766924 | 23.89° C | 46% | 1016.9 hPa | 0 mm | - | 58 W/m² | - |
| 1777766622 | 23.89° C | 45% | 1016.8 hPa | 0 mm | - | 65 W/m² | - |
| 1777766318 | 24.44° C | 45% | 1016.7 hPa | 0 mm | - | 74 W/m² | - |
| 1777766015 | 24.44° C | 46% | 1016.7 hPa | 0 mm | - | 86 W/m² | - |
| 1777765712 | 24.44° C | 45% | 1016.6 hPa | 0 mm | - | 99 W/m² | - |
| 1777765409 | 24.44° C | 45% | 1016.7 hPa | 0 mm | - | 113 W/m² | - |
| 1777765106 | 24.44° C | 45% | 1016.7 hPa | 0 mm | - | 124 W/m² | - |
| 1777764802 | 24.44° C | 45% | 1016.7 hPa | 0 mm | - | 136 W/m² | - |
| 1777764499 | 24.44° C | 45% | 1016.7 hPa | 0 mm | - | 145 W/m² | - |
| 1777764195 | 24.44° C | 44% | 1016.7 hPa | 0 mm | - | 164 W/m² | - |
| 1777763892 | 24.44° C | 46% | 1016.8 hPa | 0 mm | - | 183 W/m² | - |
| 1777763590 | 24.44° C | 45% | 1016.7 hPa | 0 mm | - | 201 W/m² | - |
| 1777763288 | 24.44° C | 45% | 1016.8 hPa | 0 mm | - | 215 W/m² | - |
| 1777762986 | 24.44° C | 44% | 1016.6 hPa | 0 mm | - | 233 W/m² | - |
| 1777762682 | 24.44° C | 45% | 1016.5 hPa | 0 mm | - | 249 W/m² | - |
| 1777762379 | 25° C | 45% | 1016.6 hPa | 0 mm | - | 265 W/m² | - |
| 1777762075 | 25° C | 45% | 1016.6 hPa | 0 mm | - | 282 W/m² | - |
| 1777761772 | 25° C | 45% | 1016.7 hPa | 0 mm | - | 301 W/m² | - |
| 1777761469 | 25° C | 45% | 1016.7 hPa | 0 mm | - | 320 W/m² | - |
| 1777761168 | 25° C | 45% | 1016.5 hPa | 0 mm | - | 339 W/m² | - |
* Rain latest hour (hover to see other rain measurements)
** Current wind speed in m/s (hover to see current wind gust speed)